KSQI Airport Information

Runway Information
Runway 07 Length 6500 ft width 150 ft
Elevation 647 ft Threshold 0 ft Heading 70
Runway 25 Length 6500 ft Width 150 ft
Elevation 647 ft Threshold 0 ft Heading 250
Runway 18 Length 3899 ft width 100 ft
Elevation 641 ft Threshold 0 ft Heading 180
Runway 36 Length 3899 ft Width 100 ft
Elevation 644 ft Threshold 0 ft Heading 0
Airport Frequencies
Type A/D Name ROCKFORD A Frequency 126 MHZ
Type AWOS Name AWOS 3 Frequency 119.175 MHZ
Type CLD Name ROCKFORD C Frequency 128 MHZ
Type UNIC Name CTAF/UNICO Frequency 123 MHZ
Airport Navaids
Airport Weather Information & NOTAM
ADDS - METARS form results

(2051 UTC 26 March 2019)
Data provider http://aviationweather.gov/metar/data/
 
METAR text: KSQI 261956Z AUTO VRB04KT 10SM CLR 08/M11 A3042 RMK AO2 SLP328 T00831106
Conditions at: KSQI (STERLING ROCKFAL, IL, US) observed 1956 UTC 26 March 2019
Temperature: 8.3°C (47°F)
Dewpoint: -10.6°C (13°F) [RH = 25%]
Pressure (altimeter): 30.42 inches Hg (1030.2 mb)
[Sea-level pressure: 1032.8 mb]
Winds: variable direction winds at 5 MPH (4 knots; 2.1 m/s)
Visibility: 10 or more miles (16+ km)
Ceiling: at least 12,000 feet AGL
Clouds: sky clear below 12,000 feet AGL
Weather: automated observation with no human augmentation;
there may or may not be significant weather present at this time